W7BDB Weather Reports


Display with metric or nautical units.
time (UTC)temp
F
wind
direction
speed
MPH
gust
MPH
rain 1hr
in
rain 24hr
in
rain mn
in
humidity
%
barometer
mb
20260505180451 59 161 0.0 2.0 0.00 0.00 0.00 55 1021.5
20260505174951 58 248 1.0 4.0 0.00 0.00 0.00 55 1021.2
20260505173450 59 70 0.0 3.0 0.00 0.00 0.00 55 1021.2
20260505171947 58 275 1.0 3.0 0.00 0.00 0.00 55 1021.2
20260505170432 58 275 2.0 3.0 0.00 0.00 0.00 55 1020.9
20260505164933 57 315 1.0 3.0 0.00 0.00 0.00 55 1020.9
20260505163432 56 286 3.0 3.0 0.00 0.00 0.00 55 1021.2
20260505161913 56 242 2.0 4.0 0.00 0.00 0.00 55 1020.9
20260505160352 56 232 2.0 3.0 0.00 0.00 0.00 55 1020.9
20260505153335 55 267 2.0 3.0 0.00 0.00 0.00 55 1020.5
20260505151809 55 151 2.0 3.0 0.00 0.00 0.00 55 1020.9
20260505140223 54 237 1.0 3.0 0.00 0.00 0.00 55 1019.8
20260505130223 54 190 0.0 3.0 0.00 0.00 0.00 55 1019.5
20260505124651 54 227 1.0 2.0 0.00 0.00 0.00 55 1019.5
20260505123131 54 194 1.0 3.0 0.00 0.00 0.00 55 1019.5
20260505121624 54 233 2.0 4.0 0.00 0.00 0.00 55 1019.5
20260505120113 54 163 1.0 7.0 0.00 0.00 0.00 55 1019.5
20260505114604 54 187 0.0 6.0 0.00 0.00 0.00 55 1019.2
20260505113053 54 233 4.0 7.0 0.00 0.00 0.00 55 1019.5
20260505111537 54 213 2.0 3.0 0.00 0.00 0.00 55 1019.2
20260505101443 54 191 1.0 6.0 0.00 0.00 0.00 55 1019.2
20260505095926 53 229 2.0 6.0 0.00 0.00 0.00 55 1018.8
20260505091423 53 222 2.0 3.0 0.00 0.00 0.00 55 1018.8
20260505085918 53 192 1.0 3.0 0.00 0.00 0.00 55 1018.5
20260505084414 53 223 2.0 3.0 0.00 0.00 0.00 55 1018.5
20260505082857 53 229 1.0 4.0 0.00 0.00 0.00 55 1018.8
20260505081336 53 231 2.0 7.0 0.00 0.00 0.00 55 1018.5
20260505071323 53 230 3.0 6.0 0.00 0.00 0.00 55 1018.2
20260505065823 54 236 4.0 7.0 0.00 0.00 0.00 55 1018.2
20260505064324 54 231 5.0 7.0 0.00 0.00 0.00 55 1017.8
20260505061244 55 222 3.0 4.0 0.00 0.00 0.00 55 1017.5
20260505055744 55 243 3.0 6.0 0.00 0.00 0.00 55 1017.8
20260505054245 55 247 5.0 8.0 0.00 0.00 0.00 55 1017.5
20260505052745 55 241 4.0 15.0 0.00 0.00 0.00 55 1017.5
20260505051225 55 251 9.0 14.0 0.00 0.00 0.00 55 1017.5
20260505041130 57 235 6.0 15.0 0.00 0.00 0.00 55 1016.5
20260505035631 57 231 9.0 14.0 0.00 0.00 0.00 55 1016.5
20260505034129 58 258 9.0 14.0 0.00 0.00 0.00 55 1016.1
20260505032630 59 289 6.0 14.0 0.00 0.00 0.00 55 1016.1
20260505025610 62 228 8.0 11.0 0.00 0.00 0.00 55 1015.8
20260505024056 63 276 7.0 15.0 0.00 0.00 0.00 55 1015.4
20260505022537 65 205 7.0 15.0 0.00 0.00 0.00 55 1015.4
20260505021022 66 232 7.0 11.0 0.00 0.00 0.00 55 1015.4
20260505015516 67 264 9.0 15.0 0.00 0.00 0.00 55 1015.4
20260505013948 68 282 4.0 14.0 0.00 0.00 0.00 55 1015.4
20260505012449 69 262 9.0 13.0 0.00 0.00 0.00 55 1015.8
20260505010948 71 268 8.0 11.0 0.00 0.00 0.00 55 1015.8
20260505005448 73 276 8.0 11.0 0.00 0.00 0.00 55 1015.8
20260505003944 74 254 4.0 10.0 0.00 0.00 0.00 55 1015.8
20260505002441 74 274 6.0 9.0 0.00 0.00 0.00 55 1015.8
20260505000922 73 241 6.0 11.0 0.00 0.00 0.00 55 1015.8
20260504235350 73 222 7.0 9.0 0.00 0.00 0.00 55 1016.1
20260504232348 74 267 3.0 10.0 0.00 0.00 0.00 55 1015.8
20260504230817 74 247 4.0 8.0 0.00 0.00 0.00 55 1016.1
20260504223817 74 214 4.0 7.0 0.00 0.00 0.00 55 1016.5
20260504222311 72 234 6.0 9.0 0.00 0.00 0.00 55 1016.8
20260504220810 71 147 3.0 7.0 0.00 0.00 0.00 55 1016.8
20260504215252 71 152 2.0 8.0 0.00 0.00 0.00 55 1016.8
20260504213736 70 168 2.0 8.0 0.00 0.00 0.00 55 1016.8
20260504210714 69 110 3.0 7.0 0.00 0.00 0.00 55 1017.1
20260504205150 69 233 4.0 8.0 0.00 0.00 0.00 55 1017.5
20260504203648 69 164 3.0 9.0 0.00 0.00 0.00 55 1017.8
20260504200621 66 134 3.0 10.0 0.00 0.00 0.00 55 1018.2
20260504195051 68 153 3.0 11.0 0.00 0.00 0.00 55 1018.2
20260504193529 66 135 4.0 8.0 0.00 0.00 0.00 55 1018.2
20260504192005 63 119 5.0 10.0 0.00 0.00 0.00 55 1018.2
20260504190452 63 214 4.0 9.0 0.00 0.00 0.00 55 1018.5
20260504183423 61 251 6.0 8.0 0.00 0.00 0.00 55 1018.5